DateTimeUTC,F1_A11,F1_S11,BsB_S11,BsG_S11,BsR_S11,BbsB_S11,BbsG_S11,BbsR_S11,BaB_A11,BaG_A11,BaR_A11,Tu_S11,T_S11,Uu_S11,U_S11,P_S11,T1_A11
2021-10-09T02:00:00Z,00000200,21000000,,,,,,,-000.02,0000.18,0000.41,16.3,23.5,,00.0,0670.6,30.8
2021-10-09T02:01:00Z,00000200,21000000,,,,,,,0000.29,0000.14,0000.05,16.4,23.5,,00.0,0670.6,30.8
2021-10-09T02:02:00Z,00000200,21000000,,,,,,,0000.40,0000.25,-000.07,16.4,23.6,,00.0,0670.6,30.8
2021-10-09T02:03:00Z,00000200,61000000,,,,,,,0000.24,0000.63,0000.40,16.4,23.6,,00.0,0670.6,30.9
2021-10-09T02:04:00Z,00000200,41000000,0000.92,0000.90,0000.73,0000.60,0000.13,-000.10,0002.03,0001.97,0001.43,16.9,23.5,,00.0,0671.5,30.9
2021-10-09T02:05:00Z,00000200,01000000,0000.99,0001.11,0000.57,0000.50,0000.11,-000.12,0005.03,0004.06,0003.13,17.0,23.5,,00.0,0671.6,30.9
2021-10-09T02:06:00Z,00000200,01000000,0001.43,0000.84,0000.48,0000.64,0000.11,-000.15,0006.40,0006.11,0004.75,17.1,23.6,,00.0,0671.6,30.9
2021-10-09T02:07:00Z,00000200,01000000,0001.39,0001.04,0000.64,-000.14,0000.43,0000.03,0002.80,0002.15,0001.39,17.1,23.6,,00.0,0671.6,30.9
2021-10-09T02:08:00Z,00000200,01000000,0002.01,0001.32,0000.46,0000.53,0000.34,0000.37,0001.53,0001.15,0000.81,17.0,23.5,,00.0,0671.6,30.9
2021-10-09T02:09:00Z,00000200,01000000,0001.80,0001.23,0000.62,0000.44,0000.23,-000.08,0004.58,0004.32,0003.08,16.9,23.5,,00.0,0671.7,30.9
2021-10-09T02:10:00Z,00000200,01000000,0001.30,0001.20,0000.66,0000.21,0000.10,0000.07,0001.26,0001.06,0001.03,16.8,23.4,,00.0,0671.7,30.9
2021-10-09T02:11:00Z,00000200,01000000,0001.28,0000.63,0000.56,0000.57,0000.21,0000.32,0000.37,0000.31,0000.07,16.7,23.4,,00.0,0671.7,30.8
2021-10-09T02:12:00Z,00000200,01000000,0000.50,0001.06,0000.17,0000.69,-000.00,0000.13,0000.14,0000.01,0000.53,16.6,23.3,,00.0,0671.7,30.8
2021-10-09T02:13:00Z,00000200,01000000,0001.55,0000.76,0000.29,-000.03,-000.03,0000.10,0000.85,0000.79,0000.22,16.6,23.3,,00.0,0671.7,30.8
2021-10-09T02:14:00Z,00000200,01000000,0001.60,0001.12,0000.58,0000.47,0000.16,0000.01,0000.90,0001.33,0000.76,16.6,23.3,,00.0,0671.6,30.8
2021-10-09T02:15:00Z,00000200,01000000,0001.49,0000.75,0000.19,0000.73,-000.09,-000.09,0000.32,0000.13,0000.35,16.7,23.3,,00.0,0671.6,30.8
2021-10-09T02:16:00Z,00000200,01000000,0001.06,0000.82,0000.56,0000.16,0000.71,-000.25,0000.48,-000.18,0000.04,16.7,23.3,,00.0,0671.6,30.8
2021-10-09T02:17:00Z,00000200,01000000,0001.22,0000.74,0000.37,0000.27,0000.14,0000.02,-000.17,0000.19,-000.04,16.8,23.3,,00.0,0671.7,30.8
2021-10-09T02:18:00Z,00000200,01000000,0000.85,0000.79,0000.40,0000.12,0000.04,0000.11,-000.58,-000.58,0000.06,16.9,23.4,,00.0,0671.7,30.9
2021-10-09T02:19:00Z,00000200,01000000,0000.55,0000.78,0000.83,-000.00,0000.18,0000.13,0001.01,0000.99,0000.19,17.0,23.4,,00.0,0671.7,30.9
2021-10-09T02:20:00Z,00000200,01000000,0001.28,0001.01,0000.46,0000.49,0000.32,-000.07,0000.64,0000.69,0000.44,17.0,23.5,,00.0,0671.7,30.9
2021-10-09T02:21:00Z,00000200,01000000,0000.87,0000.45,0000.45,0000.09,0000.02,-000.13,0000.68,0000.85,0000.92,17.1,23.5,,00.0,0671.7,30.9
2021-10-09T02:22:00Z,00000200,01000000,0000.72,0000.67,0000.33,-000.52,0000.14,-000.17,0000.16,-000.36,-000.56,17.1,23.5,,00.0,0671.7,30.9
2021-10-09T02:23:00Z,00000200,01000000,0000.41,0000.56,0000.28,0000.06,0000.12,-000.13,-001.10,-000.87,-000.66,17.0,23.5,,00.0,0671.7,30.9
2021-10-09T02:24:00Z,00000200,01000000,0001.18,0000.57,0000.44,-000.85,0000.23,-000.09,0000.04,-000.09,-000.18,16.9,23.4,,00.0,0671.7,30.9
2021-10-09T02:25:00Z,00000200,01000000,0001.05,0000.81,0000.27,-000.36,0000.27,-000.24,0000.21,0000.00,0000.06,16.8,23.4,,00.0,0671.7,30.8
2021-10-09T02:26:00Z,00000200,01000000,0001.22,0000.76,0000.18,0000.29,0000.19,-000.32,0000.40,0000.62,0000.54,16.7,23.3,,00.0,0671.7,30.8
2021-10-09T02:27:00Z,00000200,01000000,0001.23,0000.65,0000.79,0001.03,0000.02,0000.08,0000.82,0000.99,0000.57,16.6,23.3,,00.0,0671.7,30.8
2021-10-09T02:28:00Z,00000200,01000000,0001.79,0000.74,0000.90,0000.85,0000.20,0000.21,0001.15,0000.82,0000.89,16.6,23.2,,00.0,0671.6,30.8
2021-10-09T02:29:00Z,00000200,01000000,0001.02,0000.85,0000.30,0000.67,0000.06,0000.28,0000.50,0000.75,0000.35,16.6,23.2,,00.0,0671.6,30.8
2021-10-09T02:30:00Z,00000200,01000000,0001.61,0000.78,0000.69,-000.21,0000.41,0000.25,0000.56,0000.33,0000.33,16.6,23.2,,00.0,0671.6,30.8
2021-10-09T02:31:00Z,00000200,01000000,0001.84,0000.55,0000.18,0000.12,0000.15,0000.02,-000.05,-000.05,-000.19,16.7,23.3,,00.0,0671.6,30.8
2021-10-09T02:32:00Z,00000200,01000000,0001.37,0000.70,0000.27,0000.28,-000.03,0000.07,-000.32,-000.33,0000.16,16.8,23.3,,00.0,0671.6,30.8
2021-10-09T02:33:00Z,00000200,01000000,0001.42,0001.19,0000.37,0000.29,0000.49,0000.23,0000.79,0000.53,0000.25,16.9,23.4,,00.0,0671.6,30.9
2021-10-09T02:34:00Z,00000200,01000000,0000.97,0000.85,0000.81,-000.14,0000.18,0000.08,0000.50,0000.70,0000.68,16.9,23.4,,00.0,0671.6,30.9
2021-10-09T02:35:00Z,00000200,01000000,0000.57,0000.69,0000.33,0000.59,0000.30,0000.30,0000.57,0000.44,0000.26,17.0,23.4,,00.0,0671.6,30.9
2021-10-09T02:36:00Z,00000200,01000000,0001.44,0001.19,0000.49,-000.40,0000.23,0000.06,0000.37,0000.45,0000.26,17.0,23.5,,00.0,0671.6,30.9
2021-10-09T02:37:00Z,00000200,01000000,0000.86,0000.68,0000.44,0000.15,0000.43,0000.27,0000.76,0000.84,0000.14,17.1,23.5,,00.0,0671.6,30.9
2021-10-09T02:38:00Z,00000200,01000000,0001.57,0000.91,0000.51,0000.63,0000.03,0000.28,-000.03,-000.22,-000.20,17.0,23.5,,00.0,0671.6,30.9
2021-10-09T02:39:00Z,00000200,01000000,0001.45,0000.82,0000.89,0000.49,0000.16,0000.18,0000.11,-000.06,0000.50,16.9,23.4,,00.0,0671.6,30.9
2021-10-09T02:40:00Z,00000200,01000000,0001.51,0000.88,0000.56,0000.22,0000.07,0000.15,0000.48,0000.19,-000.02,16.8,23.4,,00.0,0671.6,30.8
2021-10-09T02:41:00Z,00000200,01000000,0001.79,0000.90,0000.52,0000.26,0000.19,-000.29,0000.42,0000.71,0000.11,16.7,23.3,,00.0,0671.6,30.8
2021-10-09T02:42:00Z,00000200,01000000,0001.09,0001.00,0000.10,0000.21,0000.16,0000.47,0000.48,0000.17,0000.82,16.6,23.3,,00.0,0671.5,30.8
2021-10-09T02:43:00Z,00000200,01000000,0001.68,0000.77,0000.69,0000.96,0000.57,0000.04,0000.97,0001.00,0000.43,16.6,23.2,,00.0,0671.5,30.8
2021-10-09T02:44:00Z,00000200,01000000,0000.72,0000.93,0000.54,0000.78,0000.18,-000.13,0000.05,0000.38,0000.07,16.6,23.2,,00.0,0671.5,30.8
2021-10-09T02:45:00Z,00000200,01000000,0001.59,0001.04,0000.67,0000.18,0000.42,0000.00,0000.60,0000.31,0000.58,16.7,23.2,,00.0,0671.5,30.8
2021-10-09T02:46:00Z,00000200,01000000,0001.90,0001.02,0000.31,0000.24,0000.20,-000.27,0000.23,0000.37,0000.22,16.7,23.3,,00.0,0671.5,30.8
2021-10-09T02:47:00Z,00000200,01000000,0001.38,0001.02,0000.80,0000.73,-000.02,-000.06,0000.59,0000.34,0000.08,16.8,23.3,,00.0,0671.5,30.8
2021-10-09T02:48:00Z,00000200,01000000,0002.14,0000.89,0000.44,0000.38,0000.24,0000.09,0000.29,0000.32,0000.18,16.9,23.4,,00.0,0671.5,30.8
2021-10-09T02:49:00Z,00000200,01000000,0001.60,0000.73,0000.51,0000.27,0000.17,0000.02,0000.26,0000.21,0000.38,17.0,23.4,,00.0,0671.5,30.9
2021-10-09T02:50:00Z,00000200,01000000,0000.94,0001.00,0000.79,0000.27,0000.39,0000.09,0000.35,0000.27,0000.02,17.0,23.4,,00.0,0671.5,30.9
2021-10-09T02:51:00Z,00000200,01000000,0001.84,0000.58,0000.44,0000.19,0000.35,-000.13,0000.52,0000.79,0000.44,17.1,23.4,,00.0,0671.5,30.9
2021-10-09T02:52:00Z,00000200,01000000,0001.44,0000.55,0000.55,0000.27,0000.10,0000.25,0000.52,0000.33,0000.46,17.2,23.5,,00.0,0671.5,30.9
2021-10-09T02:53:00Z,00000200,01000000,0001.85,0000.68,0000.27,0000.12,-000.02,0000.03,0000.44,0000.32,0000.20,17.2,23.5,,00.0,0671.5,30.9
2021-10-09T02:54:00Z,00000200,01000000,0001.32,0000.69,0000.63,0000.93,0000.33,-000.23,0000.37,-000.05,0000.01,17.1,23.5,,00.0,0671.5,30.9
2021-10-09T02:55:00Z,00000200,01000000,0001.47,0001.20,0000.46,0000.17,0000.37,-000.05,-000.09,0000.22,-000.06,17.0,23.5,,00.0,0671.5,30.9
2021-10-09T02:56:00Z,00000200,01000000,0001.99,0001.12,0000.68,0000.72,0000.34,-000.24,0000.45,0000.09,0000.21,16.9,23.4,,00.0,0671.4,30.8
2021-10-09T02:57:00Z,00000200,41000000,,,,,,,0000.19,0000.28,0000.25,16.9,23.4,,00.0,0671.4,30.8
2021-10-09T02:58:00Z,00000200,61000000,,,,,,,-000.04,0000.26,0000.29,16.4,23.5,,00.0,0670.5,30.8
2021-10-09T02:59:00Z,00000200,21000000,,,,,,,0000.16,-000.18,-000.19,16.4,23.6,,00.0,0670.5,30.8
